cover

 

Get it on iTunes StoreListen on Apple Music

Allen Watts

#Trackname / Key / BPM / Publish dateArtists, Remixers / Label
1 140 bpm, 6A / G minor, 2018-07-02, Trance,  1  1
2 138 bpm, 6B / Bb major, 2018-06-15, Trance,  5  1
3 138 bpm, 2B / F# major, 2018-06-11, Trance,  0  13
4 138 bpm, 7A / D minor, 2018-06-11, Trance,  0  13
5 140 bpm, 6A / G minor, 2018-06-08, Trance,  4  1
6 138 bpm, 3A / Bb minor, 2018-05-14, Trance,  2  2
7 138 bpm, 3A / Bb minor, 2018-05-14, Trance,  0  2
8 138 bpm, 9A / E minor, 2018-05-04, Trance,  0  7
9 138 bpm, 6A / G minor, 2018-04-27, Trance,  1  44
10 138 bpm, 6A / G minor, 2018-04-20, Trance,  25  1
11 138 bpm, 4A / F minor, 2018-04-13, Trance,  0  11
12 138 bpm, 4A / F minor, 2018-03-30, Trance,  1  10
13 138 bpm, 4A / F minor, 2018-03-30, Trance,  2  30
14 138 bpm, 10B / D major, 2018-03-09, Trance,  15  1
15 138 bpm, 12A / Db minor, 2018-03-02, Trance,  1  22
16 138 bpm, 6A / G minor, 2018-02-23, Trance,  15  3
17 138 bpm, 9A / E minor, 2018-02-16, Trance,  0  40
18 138 bpm, 6A / G minor, 2018-02-16, Trance,  0  25
19 138 bpm, 2B / F# major, 2018-02-02, Trance,  1  100
20 138 bpm, 6A / G minor, 2018-02-02, Trance,  0  100
21 138 bpm, 2B / F# major, 2018-01-22, Trance,  11  1
22 138 bpm, 4A / F minor, 2018-01-15, Trance,  16  1
23 138 bpm, 2A / Eb minor, 2017-12-15, Trance,  8  1
24 138 bpm, 6A / G minor, 2017-12-15, Trance,  5  1
25 138 bpm, 10A / B minor, 2017-12-11, Trance,  0  51
26 138 bpm, 8B / C major, 2017-12-08, Trance,  24  2
27 138 bpm, 6A / G minor, 2017-11-24, Trance,  9  1
28 138 bpm, 10A / B minor, 2017-11-10, Trance,  0  33
29 138 bpm, 4A / F minor, 2017-11-10, Trance,  0  33
30 138 bpm, 4B / Ab major, 2017-11-03, Trance,  0  40
31 138 bpm, 5B / Eb major, 2017-10-30, Trance,  24  1
32 138 bpm, 4B / Ab major, 2017-10-27, Trance,  1  25
33 138 bpm, 2A / Eb minor, 2017-10-20, Trance,  0  10
34 140 bpm, 6A / G minor, 2017-09-04, Trance,  2  8
35 138 bpm, 7A / D minor, 2017-08-25, Trance,  0  35
36 140 bpm, 6B / Bb major, 2017-08-21, Trance,  0  15
37 138 bpm, 9A / E minor, 2017-08-18, Trance,  2  15
38 140 bpm, 6B / Bb major, 2017-08-18, Trance,  1  15
39 138 bpm, 2A / Eb minor, 2017-08-18, Trance,  0  20
40 138 bpm, 2A / Eb minor, 2017-08-04, Trance,  1  35
41 138 bpm, 7A / D minor, 2017-07-17, Trance,  10  1
42 138 bpm, 9A / E minor, 2017-07-10, Trance,  3  2
43 138 bpm, 9A / E minor, 2017-07-10, Trance,  8  2
44 138 bpm, 4B / Ab major, 2017-07-07, Trance,  0  20
45 140 bpm, 6B / Bb major, 2017-07-07, Trance,  2  2
46 140 bpm, 6B / Bb major, 2017-07-07, Trance,  0  2
47 138 bpm, 2A / Eb minor, 2017-07-07, Trance,  0  18
48 138 bpm, 2B / F# major, 2017-06-30, Trance,  0  100
49 140 bpm, 6A / G minor, 2017-06-30, Trance,  0  100
50 138 bpm, 2A / Eb minor, 2017-06-23, Trance,  3  15
51 138 bpm, 2A / Eb minor, 2017-06-23, Trance,  4  1
52 138 bpm, 2B / F# major, 2017-06-09, Trance,  0  20
53 138 bpm, 4B / Ab major, 2017-06-02, Trance,  0  40
54 138 bpm, 2A / Eb minor, 2017-05-12, Trance,  24  1
55 138 bpm, 7A / D minor, 2017-04-28, Trance,  1  25
56 138 bpm, 10B / D major, 2017-04-28, Trance,  0  15
57 140 bpm, 6A / G minor, 2017-04-28, Trance,  1  15
58 138 bpm, 2B / F# major, 2017-04-21, Trance,  1  40
59 138 bpm, 4B / Ab major, 2017-04-14, Trance,  1  20
60 138 bpm, 4B / Ab major, 2017-04-14, Trance,  0  40
61 138 bpm, 4B / Ab major, 2017-04-07, Trance,  2  25
62 138 bpm, 7A / D minor, 2017-03-17, Trance,  4  1
63 140 bpm, 6A / G minor, 2017-03-03, Trance,  23  1
64 140 bpm, 3A / Bb minor, 2017-03-03, Trance,  0  20
65 138 bpm, 4A / F minor, 2017-02-20, Trance,  0  25
66 138 bpm, 10B / D major, 2017-02-14, Trance,  2  5
67 138 bpm, 4B / Ab major, 2017-01-30, Trance,  20  1
68 138 bpm, 7B / F major, 2017-01-20, Trance,  0  15
69 138 bpm, 4A / F minor, 2017-01-13, Trance,  1  20
70 140 bpm, 3A / Bb minor, 2017-01-09, Trance,  15  1
71 138 bpm, 1A / Ab minor, 2017-01-02, Trance,  0  23
72 138 bpm, 6A / G minor, 2016-12-30, Trance,  0  17
73 138 bpm, 2B / F# major, 2016-12-16, Trance,  0  105
74 138 bpm, 2B / F# major, 2016-12-16, Trance,  0  105
75 140 bpm, 4A / F minor, 2016-12-12, Trance,  1  51
76 138 bpm, 2B / F# major, 2016-12-09, Trance,  1  10
77 138 bpm, 2B / F# major, 2016-12-02, Trance,  0  39
78 138 bpm, 4A / F minor, 2016-12-02, Trance,  0  40
79 138 bpm, 1A / Ab minor, 2016-11-28, Trance,  2  2
80 138 bpm, 6A / G minor, 2016-11-28, Trance,  5  1
81 138 bpm, 7B / F major, 2016-11-21, Trance,  13  1
82 138 bpm, 2B / F# major, 2016-11-04, Trance,  0  40
83 138 bpm, 2B / F# major, 2016-11-04, Trance,  0  100
84 140 bpm, 8A / A minor, 2016-11-04, Trance,  0  100
85 138 bpm, 6A / G minor, 2016-10-28, Trance,  1  55
86 138 bpm, 4A / F minor, 2016-10-28, Trance,  0  20
87 138 bpm, 3A / Bb minor, 2016-10-07, Trance,  0  10
88 140 bpm, 4B / Ab major, 2016-10-07, Trance,  0  10
89 140 bpm, 8A / A minor, 2016-09-30, Trance,  0  15
90 138 bpm, 4A / F minor, 2016-09-30, Trance,  0  15
91 138 bpm, 4A / F minor, 2016-09-30, Trance,  0  30
92 138 bpm, 3A / Bb minor, 2016-09-30, Trance,  0  20
93 138 bpm, 9A / E minor, 2016-09-23, Trance,  1  10
94 138 bpm, 3A / Bb minor, 2016-09-16, Trance,  0  10
95 140 bpm, 8A / A minor, 2016-09-02, Trance,  7  1
96 138 bpm, 7A / D minor, 2016-09-02, Trance,  0  10
97 138 bpm, 4A / F minor, 2016-08-29, Trance,  5  2
1
98 138 bpm, 4A / F minor, 2016-08-29, Trance,  2  2
99 138 bpm, 4A / F minor, 2016-08-19, Trance,  1  39
100 138 bpm, 4A / F minor, 2016-08-19, Trance,  0  40
×

Sign in

Sign in to access your personalized pages, follow artists and labels you love, and create playlists fromyour favorite tracks.

Please wait...